Weather History for HEGN - December, 2013

Change the Weather History Date:

Tuesday, December 17, 2013

  Actual Average Record
Temperature  
Mean Temperature 62 °F -  
Max Temperature 72 °F 69 °F 81 °F (2014)
Min Temperature 52 °F 53 °F 51 °F (2004)
Degree Days  
Heating Degree Days 3    
Growing Degree Days 12 (Base 50)    
Moisture  
Dew Point 41 °F    
Average Humidity 47    
Maximum Humidity 67    
Minimum Humidity 25    
Precipitation  
Precipitation 0.00 in - - ()
Sea Level Pressure  
Sea Level Pressure 30.10 in    
Wind  
Wind Speed 11 mph ()    
Max Wind Speed 16 mph    
Max Gust Speed -    
Visibility 6.1 miles    
Events      
Averages and records for this station are not official NWS values.
T = Trace of Precipitation, MM = Missing Value Source: Averaged Metar Reports

Daily Weather History Graph

Daily Weather History Graph

Search for Another Location

Airport or City:

Trip Planner

Search our weather history database for the weather conditions in past years. The results will help you decide how hot, cold, wet, or windy it might be!

Date:

Astronomy

Dec. 17, 2013 Rise Set
Actual Time 6:27 AM EET 4:53 PM EET
Civil Twilight 6:02 AM EET 5:19 PM EET
Nautical Twilight 5:33 AM EET 5:48 PM EET
Astronomical Twilight 5:04 AM EET 6:17 PM EET
Moon 5:11 PM EET (12/17) 6:12 AM EET (12/17)
Length of Visible Light 11h 17m
Length of Day
10h 26m
Full, 100% of the Moon is Illuminated
Dec 17
Full
Dec 25
Last Quarter
Jan 1
New
Jan 8
First Quarter
Jan 16
Full

Hourly Weather History & Observations

Time (EET) Temp. Dew Point Humidity Pressure Visibility Wind Dir Wind Speed Gust Speed Precip Events Conditions
12:00 AM 53.6 °F 35.6 °F 51% 30.15 in - WNW 10.4 mph - N/A   Clear
1:00 AM 53.6 °F 35.6 °F 51% 30.15 in - WNW 8.1 mph - N/A   Clear
2:00 AM 54 °F 37 °F 40% 30.14 in 6 mi WNW 10.4 mph - -  
2:00 AM 55.4 °F 37.4 °F 51% 30.12 in - WNW 10.4 mph - N/A   Clear
3:00 AM 53.6 °F 35.6 °F 51% 30.12 in - NW 11.5 mph - N/A   Clear
4:00 AM 55.4 °F 37.4 °F 51% 30.12 in 6.2 mi NW 15.0 mph - N/A   Scattered Clouds
5:00 AM 54 °F 38 °F 43% 30.13 in 6 mi NW 15.0 mph - -   Mostly Cloudy
5:00 AM 53.6 °F 37.4 °F 54% 30.12 in 6.2 mi NW 15.0 mph - N/A   Mostly Cloudy
6:00 AM 53.6 °F 37.4 °F 54% 30.12 in 6.2 mi NW 11.5 mph - N/A   Scattered Clouds
7:00 AM 53.6 °F 37.4 °F 54% 30.15 in 6.2 mi NW 9.2 mph - N/A   Partly Cloudy
8:00 AM 57 °F 37 °F 36% 30.17 in 6 mi NW 11.5 mph - -   Scattered Clouds
8:00 AM 57.2 °F 37.4 °F 48% 30.15 in 6.2 mi NW 11.5 mph - N/A   Partly Cloudy
9:00 AM 59.0 °F 37.4 °F 45% 30.15 in - NW 15.0 mph - N/A   Clear
10:00 AM 62.6 °F 37.4 °F 39% 30.15 in - NNW 13.8 mph - N/A   Clear
11:00 AM 65 °F 39 °F 27% 30.14 in 6 mi NNW 9.2 mph - -  
11:00 AM 64.4 °F 39.2 °F 40% 30.12 in - NNW 9.2 mph - N/A   Clear
12:00 PM 68.0 °F 41.0 °F 37% 30.06 in - North 6.9 mph - N/A   Clear
1:00 PM 69.8 °F 41.0 °F 35% 30.06 in 6.2 mi North 12.7 mph - N/A   Partly Cloudy
2:00 PM 72 °F 44 °F 25% 30.05 in 6 mi North 16.1 mph - -  
2:00 PM 71.6 °F 44.6 °F 38% 30.04 in - North 16.1 mph - N/A   Clear
3:00 PM 71.6 °F 44.6 °F 38% 30.04 in - North 11.5 mph - N/A   Clear
4:00 PM 68.0 °F 46.4 °F 46% 30.04 in - North 12.7 mph - N/A   Clear
5:00 PM 65 °F 47 °F 42% 30.02 in 6 mi North 16.1 mph - -  
5:00 PM 64.4 °F 48.2 °F 56% 30.04 in - North 16.1 mph - N/A   Clear
6:00 PM 62.6 °F 48.2 °F 59% 30.06 in 6.2 mi North 16.1 mph - N/A   Partly Cloudy
7:00 PM 60.8 °F 46.4 °F 59% 30.09 in - NNW 15.0 mph - N/A   Clear
8:00 PM 59 °F 44 °F 47% 30.11 in 6 mi NW 8.1 mph - -  
8:00 PM 59.0 °F 44.6 °F 59% 30.09 in - NW 8.1 mph - N/A   Clear
9:00 PM 57.2 °F 44.6 °F 63% 30.09 in - WNW 10.4 mph - N/A   Clear
10:00 PM 57.2 °F 42.8 °F 59% 30.12 in - WNW 11.5 mph - N/A   Clear
11:00 PM 56 °F 44 °F 53% 30.12 in 6 mi WNW 13.8 mph - -  
11:00 PM 55.4 °F 44.6 °F 67% 30.09 in - WNW 13.8 mph - N/A   Clear